CST,Max TemperatureF,Mean TemperatureF,Min TemperatureF,Max Dew PointF,MeanDew PointF,Min DewpointF,Max Humidity, Mean Humidity, Min Humidity, Max Sea Level PressureIn, Mean Sea Level PressureIn, Min Sea Level PressureIn, Max VisibilityMiles, Mean VisibilityMiles, Min VisibilityMiles, Max Wind SpeedMPH, Mean Wind SpeedMPH, Max Gust SpeedMPH,PrecipitationIn, CloudCover, Events, WindDirDegrees
2013-2-1,1,-5,-12,-6,-13,-18,79,65,51,30.30,30.21,30.05,10,9,2,16,8,22,T,3,Snow,269
2013-2-2,12,6,-1,-4,-6,-8,79,66,52,30.17,30.11,30.01,10,10,9,10,4,13,T,4,,302
2013-2-3,13,8,2,1,-1,-4,86,72,58,30.04,29.97,29.86,10,10,7,17,7,24,T,5,,288
2013-2-4,16,8,-1,-1,-4,-6,83,64,44,30.05,30.00,29.91,10,10,10,9,2,13,0.00,2,,298
2013-2-5,22,13,4,16,8,-4,92,77,62,30.12,29.81,29.63,10,6,1,16,5,21,0.04,7,Snow,248
2013-2-6,22,8,-7,19,6,-11,96,82,68,30.22,30.11,30.03,9,4,0,15,5,18,0.10,6,Fog-Snow,127
2013-2-7,26,24,21,24,21,16,100,91,81,30.21,30.07,29.98,10,5,2,14,6,21,0.09,8,Rain-Snow,42
2013-2-8,26,16,5,15,8,2,83,65,46,30.40,30.33,30.18,10,10,10,15,4,21,0.00,1,,350
2013-2-9,24,12,-1,21,11,-1,95,88,80,30.39,30.22,30.03,10,6,0,15,8,21,T,7,Fog-Snow,151
2013-2-10,38,31,24,36,29,21,96,90,84,30.07,29.62,29.25,10,3,0,23,11,31,0.37,8,Fog-Rain-Snow,111
2013-2-11,37,30,23,34,28,17,100,84,68,29.96,29.46,29.23,10,6,1,26,14,35,0.10,8,Rain-Snow,265
2013-2-12,25,21,17,17,14,11,92,80,67,30.03,29.94,29.81,10,9,4,18,8,24,T,5,Snow,254
2013-2-13,34,26,18,29,24,15,100,81,61,29.81,29.67,29.58,10,5,2,10,3,13,0.02,7,Snow,226
2013-2-14,31,23,15,29,24,7,92,77,61,30.06,29.71,29.53,10,4,1,17,9,24,0.32,8,Snow,345
2013-2-15,19,12,5,7,4,0,80,67,53,30.23,30.16,30.07,10,10,10,14,7,21,T,5,,306
2013-2-16,15,5,-5,0,-4,-10,87,69,51,30.22,30.19,30.11,10,10,9,10,5,14,0.00,3,,313
2013-2-17,20,2,-16,8,-6,-21,90,67,43,30.22,30.12,29.91,10,9,7,14,6,18,0.00,1,,142
2013-2-18,37,28,19,30,24,9,92,77,62,29.89,29.56,29.43,10,7,2,20,8,25,0.02,6,Snow,256
2013-2-19,28,16,3,23,3,-5,85,71,57,30.20,29.76,29.50,10,4,1,24,16,31,0.03,7,Snow,305
2013-2-20,23,12,1,5,1,-3,87,66,45,30.43,30.35,30.17,10,10,10,17,9,23,0.00,1,,333
2013-2-21,26,11,-4,18,7,-7,95,75,55,30.51,30.36,30.10,10,10,10,23,5,31,T,2,,63
2013-2-22,29,25,21,25,21,17,92,85,78,30.15,29.85,29.75,10,3,0,18,7,25,0.29,8,Fog-Snow,81
2013-2-23,28,24,20,22,20,18,92,81,69,29.91,29.80,29.73,10,8,1,17,7,20,0.02,8,Snow,276
2013-2-24,32,26,19,22,20,18,88,73,58,30.13,30.04,29.88,10,8,4,12,4,15,T,7,Snow,292
2013-2-25,33,24,14,25,20,12,92,79,66,30.16,30.12,30.04,10,7,1,8,1,9,T,7,Snow,146
2013-2-26,35,28,20,25,22,18,92,78,63,30.09,29.95,29.80,10,9,5,21,10,30,0.00,7,,53
2013-2-27,33,31,29,28,25,22,85,77,69,29.88,29.76,29.70,10,5,1,17,10,23,0.07,8,Snow,4
2013-2-28,31,27,22,24,19,12,85,69,53,30.21,30.03,29.90,10,9,2,17,10,24,T,8,Snow,8